GOES 1 (SMS-C) [-]

Last updated on Fri Dec 29 2023 00:02:21 GMT+0000 (Coordinated Universal Time)

1 08366U 75100A 23361.10947580 .00000072 00000+0 00000+0 0 9992 2 08366 6.9024 288.7139 0003578 315.2773 121.9111 1.00276635176151

Satellite not in orbit

GOES 1 (SMS-C) [-]